Skip to main content Skip to accessibility
This website is not compatible with your web browser. You should install a newer browser. If you live in Jersey and need help upgrading call the States of Jersey web team on 440099.
Homegov.je

L'înformâtion et les sèrvices publyis pouor I'Île dé Jèrri

  • Choose the service you want to log in to:

  • gov.je

    Update your notification preferences

  • one.gov.je

    Access government and parish services

  • CAESAR

    Clear goods through customs or claim relief

  • Talentlink

    View or update your States of Jersey job application

CI Airfield TAFs

JERSEY - EGJJ

EGJJ 220203Z 2203/2212 12006KT 9999 BKN009 BECMG 2203/2205 FEW012 PROB30 TEMPO 2205/2209 4000 BR BKN004=

GUERNSEY - EGJB

EGJB 220203Z 2203/2212 13006KT 9999 BKN011 PROB30 TEMPO 2203/2209 4000 BR BKN007 TEMPO 2205/2209 SCT014 BECMG 2209/2211 FEW014=

ALDERNEY - EGJA

EGJA 211356Z 2115/2119 VRB03KT 9999 SCT010 BKN022 PROB30 TEMPO 2115/2119 5000 -DZ BR BKN002=

Back to top
rating button